User: anonymous   Login
Location: Unspecified
(0.0000°N, 0.0000°E)
Time: 00:19:26
(UTC+02:00)
Language:

Meteor PRIRODA - Orbit

View from above orbital plane
View from above orbital plane
View from above satellite
View from above satellite

Ground track
Ground track

The orbit data is extracted from the following two-line orbital elements,

1 12585U 81065A   16270.52601764  .00001346  00000-0  66040-4 0  9992
2 12585  97.3997 248.2735 0013436 238.5635 121.4287 15.19745743922214
Epoch (UTC): 26 September 2016 12:37:27
Eccentricity: 0.0013436
inclination: 97.3997°
perigee height: 497 km
apogee height: 516 km
right ascension of ascending node: 248.2735°
argument of perigee: 238.5635°
revolutions per day: 15.19745743
mean anomaly at epoch: 121.4287°
orbit number at epoch: 92221

The dashed part of the orbit path shows where the satellite is in the earth's shadow,  

DLR